Home   Weather   Samara   Past weeks

Flag for Russia Past Weather in Samara, Russia — Yesterday and Last 2 Weeks

Now
32 °F

Passing clouds.


Feels Like: 25 °F
Forecast: 9 / 29 °F
Wind: 8 mph from Southwest

Location: Samara

Current Time: Feb 28, 2017 at 7:42:55 am

Latest Report: Feb 28, 2017 at 7:00 am


Visibility: N/A

Pressure: 29.83 "Hg

Humidity: 100%

Dew Point: 32 °F

Location of SamaraLocation

Past Weather in Samara — Graph

°F

Samara Temperature Yesterday

Maximum temperature yesterday: 32 °F (at 9:30 pm)
Minimum temperature yesterday: 19 °F (at 4:30 am)
Average temperature yesterday: 26 °F

High & Low Weather Summary for the Past Weeks

 TemperatureHumidityPressure
High39 °F (Feb 22, 1:30 pm)100% (Feb 19, 4:00 am)30.42 "Hg (Feb 19, 4:00 am)
Low1 °F (Feb 17, 5:00 am)56% (Feb 19, 4:30 pm)29.39 "Hg (Feb 24, 6:30 am)
Average25 °F86%29.80 "Hg
* Reported Feb 13 6:00 am — Feb 28 6:30 am, Samara, Weather by CustomWeather, © 2017

Note: Actual official high and low records may vary slightly from our data, if they occured in-between our weather recording intervals... More about our weather records

Advertising

Samara Weather History for the Previous 24 Hours

Scroll right to see more
 ConditionsComfort  
Time TempWeatherWind HumidityBarometerVisibility
6:30 am
Tue, Feb 28
32 °FPassing clouds.8 mph100%29.83 "HgN/A
6:00 am32 °FPassing clouds.8 mph100%29.83 "HgN/A
5:30 am32 °FPassing clouds.8 mph100%29.83 "HgN/A
5:00 am32 °FLight rain. Passing clouds.6 mph100%29.80 "HgN/A
4:30 am32 °FLight rain. Low clouds.6 mph100%29.80 "Hg1 mi
4:00 am32 °FChilly.8 mph100%29.80 "Hg1 mi
3:30 am32 °FLight rain. Low clouds.8 mph100%29.80 "Hg2 mi
3:00 am32 °FLight rain. Low clouds.6 mph100%29.80 "Hg6 mi
2:30 am32 °FLight rain. Low clouds.6 mph100%29.80 "Hg4 mi
2:00 am32 °FLight rain. Low clouds.6 mph93%29.80 "Hg4 mi
1:30 am32 °FLight rain. Low clouds.8 mph93%29.80 "Hg5 mi
1:00 am32 °FLight rain. Low clouds.8 mph93%29.83 "Hg6 mi
12:30 am32 °FLight rain. Overcast.10 mph93%29.83 "Hg6 mi
12:00 am32 °FLow clouds.10 mph93%29.83 "HgN/A
11:30 pm
Mon, Feb 27
32 °FLow clouds.10 mph93%29.80 "HgN/A
11:00 pm32 °FLow clouds.13 mph93%29.80 "HgN/A
10:30 pm32 °FLow clouds.10 mph93%29.80 "HgN/A
10:00 pm32 °FLight rain. Passing clouds.10 mph93%29.80 "HgN/A
9:30 pm32 °FLight rain. Passing clouds.8 mph93%29.80 "Hg5 mi
9:00 pm30 °FIcy mix. Overcast.10 mph100%29.80 "Hg2 mi
8:30 pm30 °FMixture of precip. Passing clouds.10 mph100%29.80 "Hg1 mi
8:00 pm30 °FChilly.13 mph100%29.80 "Hg1 mi
7:30 pm30 °FMixture of precip. Low clouds.13 mph93%29.80 "Hg1 mi
7:00 pm30 °FIcy mix. Low clouds.13 mph93%29.80 "Hg2 mi
6:30 pm30 °FIcy mix. Overcast.13 mph93%29.80 "Hg2 mi
6:00 pm30 °FMixture of precip. Overcast.13 mph93%29.80 "Hg1 mi
5:30 pm30 °FIcy mix. Partly sunny.13 mph86%29.77 "Hg3 mi
5:00 pm30 °FIcy mix. Partly sunny.13 mph86%29.77 "Hg4 mi
4:30 pm28 °FIcy mix. Overcast.17 mph93%29.77 "Hg1 mi
4:00 pm28 °FChilly.17 mph93%29.77 "Hg1 mi
3:30 pm28 °FSnow. Partly sunny.20 mph93%29.77 "Hg1 mi
3:00 pm28 °FLight snow. Partly sunny.22 mph86%29.77 "Hg1 mi
2:30 pm27 °FSnow showers. Mostly cloudy.20 mph93%29.77 "Hg1 mi
2:00 pm27 °FChilly.20 mph93%29.77 "Hg1 mi
1:30 pm27 °FChilly.20 mph86%29.77 "Hg1 mi
1:00 pm25 °FCold.17 mph93%29.77 "Hg1 mi
12:30 pm25 °FLight snow. Partly sunny.10 mph86%29.80 "Hg2 mi
12:00 pm25 °FLight snow. Scattered clouds.13 mph86%29.80 "Hg4 mi
11:30 am25 °FLight snow. Scattered clouds.13 mph80%29.83 "Hg6 mi
11:00 am25 °FLight snow. Scattered clouds.15 mph80%29.83 "HgN/A
10:30 am25 °FScattered clouds.17 mph80%29.83 "HgN/A
10:00 am23 °FScattered clouds.17 mph80%29.83 "HgN/A
9:30 am23 °FScattered clouds.15 mph80%29.83 "HgN/A
9:00 am21 °FScattered clouds.17 mph80%29.83 "HgN/A
8:30 am21 °FClear.13 mph80%29.83 "Hg10 mi
8:00 am21 °FClear.10 mph80%29.83 "Hg10 mi
7:30 am19 °FClear.8 mph79%29.83 "Hg10 mi
7:00 am19 °FClear.13 mph86%29.83 "Hg10 mi
Weather by CustomWeather, © 2017

See weather overviewHow to use our weather pages